TimeCST,TemperatureF,Dew PointF,Humidity,Sea Level PressureIn,VisibilityMPH,Wind Direction,Wind SpeedMPH,Gust SpeedMPH,PrecipitationIn,Events,Conditions,WindDirDegrees,DateUTC
12:54 AM,35.1,30.0,82,30.45,10.0,ESE,8.1,-,N/A,,Clear,110,2013-01-10 06:54:00
1:54 AM,35.1,30.0,82,30.43,10.0,East,6.9,-,N/A,,Clear,90,2013-01-10 07:54:00
2:54 AM,37.9,30.9,76,30.42,10.0,East,8.1,-,N/A,,Clear,100,2013-01-10 08:54:00
3:54 AM,39.0,32.0,76,30.39,10.0,East,8.1,-,N/A,,Clear,100,2013-01-10 09:54:00
4:54 AM,43.0,30.0,60,30.35,10.0,East,11.5,-,N/A,,Mostly Cloudy,100,2013-01-10 10:54:00
5:54 AM,42.1,32.0,67,30.33,10.0,ESE,9.2,-,0.00,Rain,Light Rain,110,2013-01-10 11:54:00
6:54 AM,41.0,33.1,73,30.31,10.0,East,10.4,-,0.01,,Overcast,90,2013-01-10 12:54:00
7:54 AM,42.1,33.1,70,30.30,10.0,ESE,10.4,-,0.00,Rain,Light Rain,110,2013-01-10 13:54:00
8:17 AM,42.8,33.8,70,30.29,8.0,East,9.2,-,0.00,Rain,Light Rain,100,2013-01-10 14:17:00
8:54 AM,42.1,36.0,79,30.27,10.0,East,6.9,-,0.01,Rain,Light Rain,100,2013-01-10 14:54:00
9:54 AM,42.1,36.0,79,30.25,7.0,ESE,9.2,-,0.01,Rain,Light Rain,110,2013-01-10 15:54:00
10:17 AM,41.0,37.4,87,30.22,1.8,East,11.5,-,0.03,Rain,Rain,100,2013-01-10 16:17:00
10:42 AM,41.0,39.2,93,30.22,3.0,ESE,9.2,-,0.06,Rain,Light Rain,110,2013-01-10 16:42:00
10:51 AM,41.0,39.2,93,30.21,4.0,ESE,11.5,-,0.06,Rain,Light Rain,110,2013-01-10 16:51:00
10:54 AM,42.1,39.0,89,30.22,5.0,ESE,11.5,-,0.06,,Overcast,110,2013-01-10 16:54:00
11:18 AM,42.8,39.2,87,30.18,5.0,ESE,12.7,-,0.00,,Overcast,110,2013-01-10 17:18:00
11:54 AM,42.1,41.0,96,30.14,3.0,ESE,12.7,-,0.00,,Overcast,110,2013-01-10 17:54:00
12:13 PM,42.8,41.0,93,30.10,2.5,East,13.8,-,N/A,,Overcast,100,2013-01-10 18:13:00
12:30 PM,42.8,41.0,93,30.09,1.8,East,13.8,-,N/A,,Overcast,100,2013-01-10 18:30:00
12:39 PM,42.8,42.8,100,30.09,1.2,ESE,12.7,-,N/A,,Overcast,110,2013-01-10 18:39:00
12:54 PM,43.0,42.1,97,30.11,1.0,SE,10.4,-,N/A,,Overcast,130,2013-01-10 18:54:00
1:15 PM,44.6,42.8,93,30.07,0.8,ESE,11.5,-,N/A,,Overcast,110,2013-01-10 19:15:00
1:54 PM,45.0,44.1,97,30.06,0.8,ESE,12.7,-,N/A,,Overcast,110,2013-01-10 19:54:00
2:54 PM,46.0,45.0,96,30.02,0.2,East,9.2,-,N/A,Fog,Fog,100,2013-01-10 20:54:00
3:54 PM,46.0,45.0,96,30.00,0.2,East,6.9,-,0.00,Fog-Rain,Light Rain,90,2013-01-10 21:54:00
4:50 PM,46.4,46.4,100,29.96,1.2,ENE,5.8,-,0.01,,Overcast,60,2013-01-10 22:50:00
4:54 PM,46.9,46.0,97,29.96,1.2,ENE,6.9,-,0.01,,Overcast,70,2013-01-10 22:54:00
5:54 PM,48.0,46.9,96,29.94,1.8,East,8.1,-,0.02,Rain,Light Rain,100,2013-01-10 23:54:00
6:13 PM,48.2,48.2,100,29.94,2.0,East,5.8,-,0.01,,Overcast,100,2013-01-11 00:13:00
6:21 PM,48.2,46.4,93,29.93,1.8,East,6.9,-,0.01,Rain,Light Rain,100,2013-01-11 00:21:00
6:54 PM,48.0,46.9,96,29.93,1.0,East,8.1,-,0.01,,Overcast,100,2013-01-11 00:54:00
7:04 PM,48.2,46.4,93,29.92,0.8,East,8.1,-,N/A,,Mist,100,2013-01-11 01:04:00
7:54 PM,48.9,48.0,97,29.88,0.8,East,10.4,-,N/A,,Mist,100,2013-01-11 01:54:00
8:18 PM,48.2,48.2,100,29.87,1.5,East,8.1,-,0.03,Rain,Light Rain,100,2013-01-11 02:18:00
8:54 PM,50.0,48.9,96,29.84,1.5,East,11.5,-,0.27,Rain,Heavy Rain,100,2013-01-11 02:54:00
9:07 PM,50.0,50.0,100,29.83,2.0,East,9.2,-,0.03,Rain,Light Rain,100,2013-01-11 03:07:00
9:15 PM,50.0,50.0,100,29.83,0.8,ESE,6.9,-,0.04,Rain,Light Rain,110,2013-01-11 03:15:00
9:25 PM,50.0,50.0,100,29.82,0.5,ESE,8.1,-,0.05,Fog-Rain,Light Rain,120,2013-01-11 03:25:00
9:38 PM,51.8,50.0,94,29.81,1.2,ESE,6.9,-,0.06,Rain,Light Rain,120,2013-01-11 03:38:00
9:54 PM,51.1,51.1,100,29.81,1.2,ESE,6.9,-,0.09,Rain,Rain,120,2013-01-11 03:54:00
10:00 PM,51.8,51.8,100,29.80,2.5,ESE,6.9,-,0.01,Rain,Light Rain,120,2013-01-11 04:00:00
10:08 PM,51.8,51.8,100,29.80,4.0,East,5.8,-,0.01,Rain,Light Rain,100,2013-01-11 04:08:00
10:23 PM,51.8,51.8,100,29.79,1.8,East,6.9,-,0.02,Rain,Light Rain,90,2013-01-11 04:23:00
10:31 PM,51.8,51.8,100,29.78,2.5,ESE,4.6,-,0.02,,Overcast,110,2013-01-11 04:31:00
10:54 PM,51.1,50.0,96,29.79,1.5,SW,5.8,-,0.03,Rain,Light Rain,230,2013-01-11 04:54:00
11:08 PM,53.6,53.6,100,29.79,3.0,South,6.9,-,0.03,Rain,Light Rain,190,2013-01-11 05:08:00
11:27 PM,51.8,51.8,100,29.78,2.5,Calm,Calm,-,0.06,Rain,Light Rain,0,2013-01-11 05:27:00
11:37 PM,51.8,51.8,100,29.78,1.0,Calm,Calm,-,0.06,Rain,Light Rain,0,2013-01-11 05:37:00
11:41 PM,51.8,51.8,100,29.78,0.8,Calm,Calm,-,0.07,Rain,Light Rain,0,2013-01-11 05:41:00
11:52 PM,53.6,51.8,94,29.77,1.0,Calm,Calm,-,0.07,Rain,Light Rain,0,2013-01-11 05:52:00
11:54 PM,53.1,52.0,96,29.78,1.0,Calm,Calm,-,0.07,,Overcast,0,2013-01-11 05:54:00